When you browse on this site, cookies collect data to enhance your experience and personalize the content and advertising you see.
Visit our Privacy Policy to learn more. By continuing to use the site, you agree to this use of cookies and data.
  • In Romania
  • List of Countries
  • For 7 days
  • Water Temperature
  • Weather Map
  • Weather Widgets
  • user-avatar
    Login

    Hourly Weather Northallerton

    Today, 5 June, Friday

    Time Temperature Precipitation Wind Pressure Humidity
    00:00 +8°C° 1.1 mm 2 mps 743 mmHg 96%
    01:00 +8°C° 0.6 mm 2 mps 743 mmHg 95%
    02:00 +7°C° 0.6 mm 3 mps 742 mmHg 94%
    03:00 +6°C° 0.6 mm 4 mps 742 mmHg 94%
    04:00 +6°C° 0.2 mm 4 mps 742 mmHg 92%
    05:00 +6°C° 0.2 mm 5 mps 742 mmHg 90%
    06:00 +6°C° 0.2 mm 5 mps 742 mmHg 88%
    07:00 +7°C° 0 mm 5 mps 742 mmHg 81%
    08:00 +8°C° 0 mm 6 mps 742 mmHg 74%
    09:00 +9°C° 0 mm 6 mps 742 mmHg 67%
    10:00 +9°C° 0.4 mm 6 mps 741 mmHg 67%
    11:00 +10°C° 0.4 mm 6 mps 741 mmHg 67%
    12:00 +10°C° 0.4 mm 6 mps 741 mmHg 67%
    13:00 +10°C° 0.5 mm 7 mps 741 mmHg 68%
    14:00 +11°C° 0.5 mm 7 mps 740 mmHg 69%
    15:00 +11°C° 0.5 mm 8 mps 740 mmHg 70%
    16:00 +10°C° 0.3 mm 8 mps 739 mmHg 70%
    17:00 +10°C° 0.3 mm 8 mps 739 mmHg 71%
    18:00 +9°C° 0.3 mm 8 mps 739 mmHg 71%
    19:00 +7°C° 0 mm 8 mps 739 mmHg 73%
    20:00 +6°C° 0 mm 8 mps 738 mmHg 74%
    21:00 +5°C° 0 mm 8 mps 738 mmHg 76%
    22:00 +5°C° 0.4 mm 8 mps 738 mmHg 80%
    23:00 +5°C° 0.4 mm 8 mps 737 mmHg 85%

    Tomorrow, 6 June, Saturday

    Time Temperature Precipitation Wind Pressure Humidity
    00:00 +5°C° 0.4 mm 8 mps 736 mmHg 89%
    01:00 +6°C° 0.7 mm 7 mps 736 mmHg 91%
    02:00 +7°C° 0.7 mm 6 mps 735 mmHg 92%
    03:00 +7°C° 0.7 mm 5 mps 735 mmHg 94%
    04:00 +6°C° 0.4 mm 7 mps 735 mmHg 92%
    05:00 +6°C° 0.4 mm 8 mps 735 mmHg 90%
    06:00 +6°C° 0.4 mm 9 mps 735 mmHg 87%
    07:00 +7°C° 0.2 mm 9 mps 736 mmHg 85%
    08:00 +8°C° 0.2 mm 9 mps 737 mmHg 84%
    09:00 +9°C° 0.2 mm 10 mps 737 mmHg 82%
    10:00 +10°C° 0.4 mm 9 mps 738 mmHg 81%
    11:00 +10°C° 0.4 mm 9 mps 739 mmHg 81%
    12:00 +10°C° 0.4 mm 9 mps 740 mmHg 80%
    13:00 +11°C° 0.3 mm 9 mps 741 mmHg 77%
    14:00 +12°C° 0.3 mm 8 mps 741 mmHg 73%
    15:00 +13°C° 0.3 mm 8 mps 742 mmHg 70%
    16:00 +12°C° 0.1 mm 7 mps 742 mmHg 72%
    17:00 +13°C° 0.1 mm 6 mps 743 mmHg 74%
    18:00 +13°C° 0.1 mm 5 mps 743 mmHg 77%
    19:00 +11°C° 0 mm 4 mps 744 mmHg 82%
    20:00 +10°C° 0 mm 3 mps 745 mmHg 86%
    21:00 +9°C° 0 mm 2 mps 745 mmHg 91%
    22:00 +8°C° 0 mm 2 mps 746 mmHg 91%
    23:00 +8°C° 0 mm 2 mps 746 mmHg 91%

    Day after tomorrow, 7 June, Sunday

    Time Temperature Precipitation Wind Pressure Humidity
    00:00 +7°C° 0 mm 2 mps 746 mmHg 91%
    01:00 +7°C° 0 mm 2 mps 746 mmHg 89%
    02:00 +8°C° 0 mm 1 mps 747 mmHg 88%
    03:00 +9°C° 0 mm 1 mps 747 mmHg 87%
    04:00 +8°C° 0.1 mm 2 mps 747 mmHg 88%
    05:00 +9°C° 0.1 mm 2 mps 748 mmHg 89%
    06:00 +10°C° 0.1 mm 2 mps 748 mmHg 90%
    07:00 +10°C° 0.2 mm 3 mps 748 mmHg 91%
    08:00 +10°C° 0.2 mm 3 mps 749 mmHg 92%
    09:00 +11°C° 0.2 mm 4 mps 749 mmHg 93%
    10:00 +11°C° 0.6 mm 4 mps 750 mmHg 93%
    11:00 +10°C° 0.6 mm 5 mps 750 mmHg 93%
    12:00 +10°C° 0.6 mm 6 mps 751 mmHg 94%
    13:00 +10°C° 0.3 mm 6 mps 751 mmHg 93%
    14:00 +10°C° 0.3 mm 6 mps 752 mmHg 93%
    15:00 +9°C° 0.3 mm 7 mps 752 mmHg 92%
    16:00 +9°C° 0 mm 7 mps 753 mmHg 91%
    17:00 +10°C° 0 mm 7 mps 753 mmHg 89%
    18:00 +10°C° 0 mm 7 mps 754 mmHg 87%
    19:00 +9°C° 0 mm 6 mps 755 mmHg 86%
    20:00 +9°C° 0 mm 5 mps 755 mmHg 86%
    21:00 +8°C° 0 mm 4 mps 756 mmHg 86%
    22:00 +8°C° 0 mm 4 mps 756 mmHg 85%
    23:00 +7°C° 0 mm 4 mps 757 mmHg 85%

    8 June, Monday

    Time Temperature Precipitation Wind Pressure Humidity
    00:00 +7°C° 0 mm 4 mps 757 mmHg 85%
    01:00 +6°C° 0 mm 4 mps 757 mmHg 87%
    02:00 +5°C° 0 mm 4 mps 757 mmHg 89%
    03:00 +4°C° 0 mm 4 mps 758 mmHg 91%
    04:00 +5°C° 0 mm 4 mps 758 mmHg 87%
    05:00 +6°C° 0 mm 4 mps 758 mmHg 83%
    06:00 +6°C° 0 mm 5 mps 758 mmHg 79%
    07:00 +7°C° 0 mm 5 mps 759 mmHg 75%
    08:00 +8°C° 0 mm 5 mps 759 mmHg 71%
    09:00 +9°C° 0 mm 5 mps 760 mmHg 67%
    10:00 +10°C° 0 mm 5 mps 760 mmHg 66%
    11:00 +10°C° 0 mm 5 mps 760 mmHg 65%
    12:00 +12°C° 0 mm 5 mps 760 mmHg 64%
    13:00 +12°C° 0 mm 5 mps 760 mmHg 64%
    14:00 +12°C° 0 mm 5 mps 760 mmHg 65%
    15:00 +11°C° 0 mm 4 mps 761 mmHg 66%
    16:00 +11°C° 0 mm 4 mps 761 mmHg 68%
    17:00 +11°C° 0 mm 4 mps 761 mmHg 69%
    18:00 +10°C° 0 mm 4 mps 761 mmHg 71%
    19:00 +8°C° 0 mm 4 mps 762 mmHg 75%
    20:00 +8°C° 0 mm 3 mps 762 mmHg 80%
    21:00 +7°C° 0 mm 3 mps 762 mmHg 84%
    22:00 +5°C° 0 mm 3 mps 763 mmHg 85%
    23:00 +5°C° 0 mm 3 mps 763 mmHg 87%

    9 June, Tuesday

    Time Temperature Precipitation Wind Pressure Humidity
    00:00 +5°C° 0 mm 2 mps 763 mmHg 89%
    01:00 +4°C° 0 mm 3 mps 763 mmHg 88%
    02:00 +4°C° 0 mm 3 mps 763 mmHg 88%
    03:00 +4°C° 0 mm 3 mps 763 mmHg 88%
    04:00 +5°C° 0 mm 3 mps 763 mmHg 85%
    05:00 +7°C° 0 mm 3 mps 763 mmHg 82%
    06:00 +7°C° 0 mm 4 mps 764 mmHg 80%
    07:00 +8°C° 0 mm 4 mps 764 mmHg 76%
    08:00 +10°C° 0 mm 4 mps 764 mmHg 73%
    09:00 +11°C° 0 mm 4 mps 764 mmHg 69%
    10:00 +12°C° 0 mm 4 mps 764 mmHg 68%
    11:00 +12°C° 0 mm 4 mps 765 mmHg 66%
    12:00 +12°C° 0 mm 4 mps 765 mmHg 65%
    13:00 +13°C° 0 mm 4 mps 765 mmHg 65%
    14:00 +13°C° 0 mm 4 mps 765 mmHg 65%
    15:00 +13°C° 0 mm 4 mps 765 mmHg 65%
    16:00 +12°C° 0 mm 4 mps 765 mmHg 66%
    17:00 +12°C° 0 mm 3 mps 765 mmHg 68%
    18:00 +11°C° 0 mm 3 mps 765 mmHg 70%
    19:00 +10°C° 0 mm 3 mps 766 mmHg 76%
    20:00 +8°C° 0 mm 2 mps 766 mmHg 81%
    21:00 +6°C° 0 mm 2 mps 766 mmHg 87%
    22:00 +7°C° 0 mm 1 mps 767 mmHg 88%
    23:00 +6°C° 0 mm 1 mps 767 mmHg 88%

    10 June, Wednesday

    Time Temperature Precipitation Wind Pressure Humidity
    00:00 +6°C° 0 mm 1 mps 767 mmHg 89%
    01:00 +6°C° 0 mm 1 mps 767 mmHg 89%
    02:00 +5°C° 0 mm 2 mps 767 mmHg 88%
    03:00 +5°C° 0 mm 2 mps 767 mmHg 88%
    04:00 +6°C° 0 mm 2 mps 767 mmHg 86%
    05:00 +7°C° 0 mm 2 mps 767 mmHg 83%
    06:00 +8°C° 0 mm 2 mps 767 mmHg 81%
    07:00 +10°C° 0 mm 2 mps 767 mmHg 78%
    08:00 +12°C° 0 mm 2 mps 767 mmHg 75%
    09:00 +12°C° 0 mm 3 mps 767 mmHg 72%
    10:00 +12°C° 0 mm 3 mps 767 mmHg 71%
    11:00 +13°C° 0 mm 3 mps 767 mmHg 71%
    12:00 +13°C° 0 mm 3 mps 767 mmHg 71%
    13:00 +14°C° 0 mm 3 mps 767 mmHg 70%
    14:00 +14°C° 0 mm 4 mps 767 mmHg 69%
    15:00 +14°C° 0 mm 4 mps 767 mmHg 68%
    16:00 +14°C° 0 mm 4 mps 767 mmHg 71%
    17:00 +13°C° 0 mm 4 mps 767 mmHg 73%
    18:00 +13°C° 0 mm 4 mps 767 mmHg 76%
    19:00 +11°C° 0 mm 3 mps 767 mmHg 82%
    20:00 +10°C° 0 mm 3 mps 767 mmHg 88%
    21:00 +8°C° 0 mm 2 mps 767 mmHg 93%
    22:00 +8°C° 0 mm 2 mps 767 mmHg 94%
    23:00 +8°C° 0 mm 2 mps 767 mmHg 94%
    Show more